Surface/Precipitation History
03/24/2017 01:45  to  3/25/2017 01:45
Change End Date:
Date/Time
(MDT)
Sf
Temp Chem Water Layer Surface Precipitation
Sfc Pvt Sub Frz Factor Pct Dpth DpthThk IcePct Cond Salin FI Type Intens Accum Rate
03/25/2017 01:37 Wet 34.0F - 37F 32F 5 0% 0.00 in - 0% 0 mhos 7 - Snow Slight 0.09 in 0.0 iph
03/25/2017 01:30 Wet 34.0F - 37F 32F 5 0% 0.00 in - 0% 0 mhos 7 - Yes Slight 0.09 in 0.0 iph
03/25/2017 01:22 Wet 34.2F - 37F 32F 5 0% 0.00 in - 0% 0 mhos 7 - Yes Moderate 0.09 in 0.0 iph
03/25/2017 01:20 Wet 34.2F - 37F 32F 5 0% 0.00 in - 0% 0 mhos 7 - None None 0.09 in 0.0 iph
03/25/2017 01:10 Wet 34.2F - 37F 32F 5 0% 0.00 in - 0% 0 mhos 7 - None None 0.09 in 0.0 iph
03/25/2017 01:07 Wet 34.2F - 37F 32F 5 0% 0.00 in - 0% 0 mhos 7 - Snow Slight 0.09 in 0.0 iph
03/25/2017 01:00 Wet 34.2F - 37F 32F 5 0% 0.00 in - 0% 0 mhos 7 - Snow Slight 0.09 in 0.0 iph
03/25/2017 00:51 Wet 34.5F - 37F 32F 5 0% 0.00 in - 0% 0 mhos 6 - Snow Slight 0.09 in 0.0 iph
03/25/2017 00:50 Wet 34.5F - 37F 32F 5 0% 0.00 in - 0% 0 mhos 6 - Snow Slight 0.09 in 0.0 iph
03/25/2017 00:40 Wet 34.9F - 37F 32F 5 0% 0.00 in - 0% 0 mhos 7 - Rain Slight 0.09 in 0.0 iph
03/25/2017 00:37 Wet 35.1F - 37F 32F 5 0% 0.00 in - 0% 0 mhos 7 - Rain Slight 0.09 in 0.0 iph
03/25/2017 00:30 Wet 35.1F - 37F 32F 5 0% 0.00 in - 0% 0 mhos 6 - Rain Slight 0.09 in 0.0 iph
03/25/2017 00:22 Wet 34.7F - 37F 32F 5 0% 0.00 in - 0% 0 mhos 6 - Rain Slight 0.09 in 0.0 iph
03/25/2017 00:20 Wet 34.5F - 37F 32F 5 0% 0.00 in - 0% 0 mhos 6 - Rain Slight 0.09 in 0.0 iph
03/25/2017 00:10 Wet 34.9F - 37F 32F 5 0% 0.00 in - 0% 0 mhos 9 - Rain Slight 0.09 in 0.0 iph
Date/Time
(MDT)
Sf
Temp Chem Water Layer Surface Precipitation
Sfc Pvt Sub Frz Factor Pct Dpth DpthThk IcePct Cond Salin FI Type Intens Accum Rate
03/25/2017 00:07 Wet 35.4F - 37F 32F 5 0% 0.00 in - 0% 0 mhos 10 - Rain Slight 0.09 in 0.0 iph
03/25/2017 00:00 Wet 36.0F - 37F 32F 5 0% 0.00 in - 0% 0 mhos 10 - Rain Slight 0.09 in 0.0 iph
03/24/2017 23:52 Wet 36.1F - 37F 32F 5 0% 0.00 in - 0% 0 mhos 12 - Rain Slight 0.08 in 0.0 iph
03/24/2017 23:50 Wet 36.3F - 37F 32F 5 0% 0.00 in - 0% 0 mhos 13 - Rain Slight 0.08 in 0.0 iph
03/24/2017 23:40 Wet 36.3F - 38F 32F 5 0% 0.00 in - 0% 0 mhos 14 - Rain Slight 0.08 in 0.0 iph
03/24/2017 23:37 Wet 36.5F - 38F 32F 5 0% 0.00 in - 0% 0 mhos 14 - Rain Slight 0.08 in 0.0 iph
03/24/2017 23:30 Wet 36.7F - 37F 32F 5 0% 0.00 in - 0% 0 mhos 13 - Rain Slight 0.07 in 0.0 iph
03/24/2017 23:22 Wet 36.7F - 38F 32F 5 0% 0.00 in - 0% 0 mhos 21 - Rain Slight 0.07 in 0.0 iph
03/24/2017 23:20 Wet 36.9F - 38F 32F 5 0% 0.00 in - 0% 0 mhos 20 - Rain Slight 0.07 in 0.0 iph
03/24/2017 23:10 Wet 37.0F - 38F 32F 5 0% 0.00 in - 0% 0 mhos 19 - Rain Slight 0.07 in 0.0 iph
03/24/2017 23:06 Wet 37.0F - 38F 32F 10 0% 0.00 in - 0% 0 mhos 22 - Rain Slight 0.07 in 0.0 iph
03/24/2017 23:00 Wet 37.2F - 38F 32F 10 0% 0.00 in - 0% 0 mhos 24 - Rain Slight 0.07 in 0.0 iph
03/24/2017 22:51 Wet 37.2F - 38F 32F 20 0% 0.00 in - 0% 0 mhos 24 - Rain Slight 0.07 in 0.0 iph
03/24/2017 22:50 Wet 37.2F - 38F 32F 5 0% 0.00 in - 0% 0 mhos 27 - Rain Slight 0.07 in 0.0 iph
03/24/2017 22:39 Wet 37.4F - 38F 32F 10 0% 0.00 in - 0% 0 mhos 29 - Rain Slight 0.07 in 0.0 iph
Date/Time
(MDT)
Sf
Temp Chem Water Layer Surface Precipitation
Sfc Pvt Sub Frz Factor Pct Dpth DpthThk IcePct Cond Salin FI Type Intens Accum Rate
03/24/2017 22:37 Wet 37.4F - 38F 32F 5 0% 0.00 in - 0% 0 mhos 31 - Rain Slight 0.07 in 0.0 iph
03/24/2017 22:29 Wet 37.4F - 38F 32F 10 0% 0.00 in - 0% 0 mhos 31 - Rain Moderate 0.07 in 0.0 iph
03/24/2017 22:22 Wet 37.4F - 38F 32F 10 0% 0.00 in - 0% 0 mhos 29 - Rain Moderate 0.06 in 0.0 iph
03/24/2017 22:19 Wet 37.4F - 37F 32F 10 0% 0.00 in - 0% 0 mhos 27 - Rain Moderate 0.06 in 0.0 iph
03/24/2017 22:09 Wet 37.4F - 37F 32F 15 0% 0.00 in - 0% 0 mhos 28 - Rain Moderate 0.06 in 0.0 iph
03/24/2017 22:07 Wet 37.4F - 37F 32F 15 0% 0.00 in - 0% 0 mhos 31 - Rain Moderate 0.06 in 0.0 iph
03/24/2017 21:59 Wet 37.6F - 37F 32F 10 0% 0.00 in - 0% 0 mhos 30 - Rain Slight 0.06 in 0.0 iph
03/24/2017 21:52 Wet 37.8F - 37F 32F 10 0% 0.00 in - 0% 0 mhos 28 - Rain Slight 0.06 in 0.0 iph
03/24/2017 21:49 Wet 37.8F - 37F 32F 10 0% 0.00 in - 0% 0 mhos 26 - Rain Slight 0.06 in 0.0 iph
03/24/2017 21:39 Wet 37.6F - 37F 32F 5 0% 0.00 in - 0% 0 mhos 34 - Rain Moderate 0.05 in 0.0 iph
03/24/2017 21:37 Wet 37.6F - 37F 32F 5 0% 0.00 in - 0% 0 mhos 34 - Rain Moderate 0.05 in 0.0 iph
03/24/2017 21:29 Wet 37.9F - 37F 32F 10 0% 0.00 in - 0% 0 mhos 27 - Rain Moderate 0.05 in 0.0 iph
03/24/2017 21:22 Wet 37.9F - 37F 32F 10 0% 0.00 in - 0% 0 mhos 10 - Rain Moderate 0.04 in 0.0 iph
03/24/2017 21:19 Wet 38.3F - 37F 32F 15 0% 0.00 in - 0% 0 mhos 5 - Rain Moderate 0.04 in 0.0 iph
03/24/2017 21:09 Wet 37.9F - 37F 32F 5 0% 0.00 in - 0% 0 mhos 3 - Rain Moderate 0.04 in 0.0 iph
Date/Time
(MDT)
Sf
Temp Chem Water Layer Surface Precipitation
Sfc Pvt Sub Frz Factor Pct Dpth DpthThk IcePct Cond Salin FI Type Intens Accum Rate
03/24/2017 21:07 Wet 37.9F - 37F 32F 5 0% 0.00 in - 0% 0 mhos 3 - Rain Moderate 0.04 in 0.0 iph
03/24/2017 20:59 Wet 37.9F - 37F 32F 5 0% 0.00 in - 0% 0 mhos 3 - Rain Slight 0.03 in 0.0 iph
03/24/2017 20:52 Wet 38.1F - 37F 32F 5 0% 0.00 in - 0% 0 mhos 3 - Rain Slight 0.03 in 0.0 iph
03/24/2017 20:49 Wet 38.1F - 37F 32F 5 0% 0.00 in - 0% 0 mhos 3 - Rain Moderate 0.03 in 0.0 iph
03/24/2017 20:39 Wet 38.7F - 37F 32F 5 0% 0.00 in - 0% 0 mhos 3 - Rain Moderate 0.03 in 0.0 iph
03/24/2017 20:37 Wet 38.8F - 37F 32F 5 0% 0.00 in - 0% 0 mhos 3 - Rain Moderate 0.02 in 0.0 iph
03/24/2017 20:29 Wet 39.0F - 37F 32F 5 0% 0.00 in - 0% 0 mhos 3 - Rain Moderate 0.02 in 0.0 iph
03/24/2017 20:22 Wet 39.2F - 37F 32F 5 0% 0.00 in - 0% 0 mhos 3 - Rain Slight 0.02 in 0.0 iph
03/24/2017 20:19 Wet 39.4F - 37F 32F 5 0% 0.00 in - 0% 0 mhos 4 - Rain Slight 0.02 in 0.0 iph
03/24/2017 20:09 Wet 39.7F - 37F 32F 5 0% 0.00 in - 0% 0 mhos 4 - Rain Moderate 0.02 in 0.0 iph
03/24/2017 20:06 Wet 39.7F - 37F 32F 5 0% 0.00 in - 0% 0 mhos 4 - Rain Moderate 0.02 in 0.0 iph
03/24/2017 19:59 Wet 40.3F - 37F 32F 5 0% 0.00 in - 0% 0 mhos 4 - Rain Moderate 0.01 in 0.0 iph
03/24/2017 19:51 Wet 40.5F - 37F 32F 5 0% 0.00 in - 0% 0 mhos 3 - Rain Moderate 0.01 in 0.0 iph
03/24/2017 19:49 Wet 40.8F - 37F 32F 5 0% 0.00 in - 0% 0 mhos 4 - Rain Moderate 0.01 in 0.0 iph
03/24/2017 19:39 Wet 41.7F - 37F 32F 5 0% 0.20 in - 0% 0 mhos 1 - Rain Moderate 0.00 in 0.0 iph
Date/Time
(MDT)
Sf
Temp Chem Water Layer Surface Precipitation
Sfc Pvt Sub Frz Factor Pct Dpth DpthThk IcePct Cond Salin FI Type Intens Accum Rate
03/24/2017 19:36 Wet 42.1F - 37F 32F 5 0% 0.20 in - 0% 0 mhos 1 - Rain Moderate 0.00 in 0.0 iph
03/24/2017 19:29 Wet 42.8F - 37F 32F 5 0% 0.00 in - 0% 0 mhos 1 - Rain Slight 0.00 in 0.0 iph
03/24/2017 19:21 Wet 43.9F - 37F 32F 5 0% 0.00 in - 0% 0 mhos 1 - Rain Slight 0.00 in 0.0 iph
03/24/2017 19:18 Wet 44.2F - 37F 32F 5 0% 0.00 in - 0% 0 mhos 0 - Rain Moderate 0.00 in 0.0 iph
03/24/2017 19:08 Dry 45.3F - 37F - - - - - - 0 mhos 0 - Rain Slight 0.00 in 0.0 iph
03/24/2017 19:06 Dry 45.5F - 37F - - - - - - 0 mhos 0 - Rain Slight 0.00 in 0.0 iph
03/24/2017 18:58 Dry 47.1F - 37F - - - - - - 0 mhos 0 - None None 0.00 in 0.0 iph
03/24/2017 18:51 Dry 47.8F - 37F - - - - - - 0 mhos 0 - None None 0.00 in 0.0 iph
03/24/2017 18:48 Dry 48.2F - 37F - - - - - - 0 mhos 0 - None None 0.00 in 0.0 iph
03/24/2017 18:38 Dry 49.5F - 37F - - - - - - 0 mhos 0 - None None 0.00 in 0.0 iph
03/24/2017 18:36 Dry 49.5F - 37F - - - - - - 0 mhos 0 - None None 0.00 in 0.0 iph
03/24/2017 18:28 Dry 50.2F - 37F - - - - - - 0 mhos 0 - None None 0.00 in 0.0 iph
03/24/2017 18:21 Dry 50.7F - 36F - - - - - - 0 mhos 0 - None None 0.00 in 0.0 iph
03/24/2017 18:18 Dry 51.1F - 36F - - - - - - 0 mhos 0 - None None 0.00 in 0.0 iph
03/24/2017 18:08 Dry 52.3F - 36F - - - - - - 0 mhos 0 - None None 0.00 in 0.0 iph
Date/Time
(MDT)
Sf
Temp Chem Water Layer Surface Precipitation
Sfc Pvt Sub Frz Factor Pct Dpth DpthThk IcePct Cond Salin FI Type Intens Accum Rate
03/24/2017 18:06 Dry 52.5F - 36F - - - - - - 0 mhos 0 - None None 0.00 in 0.0 iph
03/24/2017 17:58 Dry 53.2F - 36F - - - - - - 0 mhos 0 - None None 0.00 in 0.0 iph
03/24/2017 17:51 Dry 53.8F - 36F - - - - - - 0 mhos 0 - None None 0.00 in 0.0 iph
03/24/2017 17:48 Dry 54.0F - 36F - - - - - - 0 mhos 0 - None None 0.00 in 0.0 iph
03/24/2017 17:38 Dry 54.7F - 36F - - - - - - 0 mhos 0 - None None 0.00 in 0.0 iph
03/24/2017 17:36 Dry 54.9F - 36F - - - - - - 0 mhos 0 - None None 0.00 in 0.0 iph
03/24/2017 17:28 Dry 55.9F - 36F - - - - - - 0 mhos 0 - None None 0.00 in 0.0 iph
03/24/2017 17:21 Dry 56.1F - 36F - - - - - - 0 mhos 0 - None None 0.00 in 0.0 iph
03/24/2017 17:18 Dry 56.7F - 36F - - - - - - 0 mhos 0 - None None 0.00 in 0.0 iph
03/24/2017 17:08 Dry 57.2F - 36F - - - - - - 0 mhos 0 - None None 0.00 in 0.0 iph
03/24/2017 17:06 Dry 57.4F - 36F - - - - - - 0 mhos 0 - None None 0.00 in 0.0 iph
03/24/2017 16:58 Dry 58.8F - 36F - - - - - - 0 mhos 0 - None None 0.00 in 0.0 iph
03/24/2017 16:51 Dry 59.4F - 36F - - - - - - 0 mhos 0 - None None 0.00 in 0.0 iph
03/24/2017 16:48 Dry 59.2F - 36F - - - - - - 0 mhos 0 - None None 0.00 in 0.0 iph
03/24/2017 16:38 Dry 61.0F - 36F - - - - - - 0 mhos 0 - None None 0.00 in 0.0 iph
Date/Time
(MDT)
Sf
Temp Chem Water Layer Surface Precipitation
Sfc Pvt Sub Frz Factor Pct Dpth DpthThk IcePct Cond Salin FI Type Intens Accum Rate
03/24/2017 16:36 Dry 60.8F - 36F - - - - - - 0 mhos 0 - None None 0.00 in 0.0 iph
03/24/2017 16:28 Dry 62.1F - 35F - - - - - - 0 mhos 0 - None None 0.00 in 0.0 iph
03/24/2017 16:21 Dry 62.4F - 35F - - - - - - 0 mhos 0 - None None 0.00 in 0.0 iph
03/24/2017 16:18 Dry 62.4F - 35F - - - - - - 0 mhos 0 - None None 0.00 in 0.0 iph
03/24/2017 16:08 Dry 63.0F - 35F - - - - - - 0 mhos 0 - None None 0.00 in 0.0 iph
03/24/2017 16:06 Dry 63.0F - 35F - - - - - - 0 mhos 0 - None None 0.00 in 0.0 iph
03/24/2017 15:58 Dry 63.3F - 35F - - - - - - 0 mhos 0 - None None 0.00 in 0.0 iph
03/24/2017 15:51 Dry 64.0F - 35F - - - - - - 0 mhos 0 - None None 0.00 in 0.0 iph
03/24/2017 15:47 Dry 64.6F - 35F - - - - - - 0 mhos 0 - None None 0.00 in 0.0 iph
03/24/2017 15:37 Dry 65.1F - 35F - - - - - - 0 mhos 0 - None None 0.00 in 0.0 iph
03/24/2017 15:36 Dry 65.3F - 35F - - - - - - 0 mhos 0 - None None 0.00 in 0.0 iph
03/24/2017 15:27 Dry 66.9F - 35F - - - - - - 0 mhos 0 - None None 0.00 in 0.0 iph
03/24/2017 15:21 Dry 67.3F - 35F - - - - - - 0 mhos 0 - None None 0.00 in 0.0 iph
03/24/2017 15:17 Dry 68.2F - 35F - - - - - - 0 mhos 0 - None None 0.00 in 0.0 iph
03/24/2017 15:07 Dry 68.4F - 35F - - - - - - 0 mhos 0 - None None 0.00 in 0.0 iph
Date/Time
(MDT)
Sf
Temp Chem Water Layer Surface Precipitation
Sfc Pvt Sub Frz Factor Pct Dpth DpthThk IcePct Cond Salin FI Type Intens Accum Rate
03/24/2017 15:06 Dry 68.5F - 35F - - - - - - 0 mhos 0 - None None 0.00 in 0.0 iph
03/24/2017 14:57 Dry 68.7F - 35F - - - - - - 0 mhos 0 - None None 0.00 in 0.0 iph
03/24/2017 14:51 Dry 67.6F - 35F - - - - - - 0 mhos 0 - None None 0.00 in 0.0 iph
03/24/2017 14:47 Dry 67.8F - 35F - - - - - - 0 mhos 0 - None None 0.00 in 0.0 iph
03/24/2017 14:37 Dry 66.7F - 35F - - - - - - 0 mhos 0 - None None 0.00 in 0.0 iph
03/24/2017 14:36 Dry 66.4F - 35F - - - - - - 0 mhos 0 - None None 0.00 in 0.0 iph
03/24/2017 14:27 Dry 63.0F - 35F - - - - - - 0 mhos 0 - None None 0.00 in 0.0 iph
03/24/2017 14:21 Dry 62.6F - 35F - - - - - - 0 mhos 0 - None None 0.00 in 0.0 iph
03/24/2017 14:17 Dry 63.9F - 35F - - - - - - 0 mhos 0 - None None 0.00 in 0.0 iph
03/24/2017 14:07 Dry 66.4F - 35F - - - - - - 0 mhos 0 - None None 0.00 in 0.0 iph
03/24/2017 14:06 Dry 65.3F - 35F - - - - - - 0 mhos 0 - None None 0.00 in 0.0 iph
03/24/2017 13:57 Dry 63.7F - 35F - - - - - - 0 mhos 0 - None None 0.00 in 0.0 iph
03/24/2017 13:51 Dry 65.7F - 35F - - - - - - 0 mhos 0 - None None 0.00 in 0.0 iph
03/24/2017 13:47 Dry 66.2F - 35F - - - - - - 0 mhos 0 - None None 0.00 in 0.0 iph
03/24/2017 13:37 Dry 67.8F - 35F - - - - - - 0 mhos 0 - None None 0.00 in 0.0 iph
Date/Time
(MDT)
Sf
Temp Chem Water Layer Surface Precipitation
Sfc Pvt Sub Frz Factor Pct Dpth DpthThk IcePct Cond Salin FI Type Intens Accum Rate
03/24/2017 13:36 Dry 66.6F - 35F - - - - - - 0 mhos 0 - None None 0.00 in 0.0 iph
03/24/2017 13:27 Dry 64.6F - 35F - - - - - - 0 mhos 0 - None None 0.00 in 0.0 iph
03/24/2017 13:21 Dry 65.8F - 35F - - - - - - 0 mhos 0 - None None 0.00 in 0.0 iph
03/24/2017 13:17 Dry 67.3F - 35F - - - - - - 0 mhos 0 - None None 0.00 in 0.0 iph
03/24/2017 13:07 Dry 65.5F - 35F - - - - - - 0 mhos 0 - None None 0.00 in 0.0 iph
03/24/2017 13:06 Dry 65.5F - 35F - - - - - - 0 mhos 0 - None None 0.00 in 0.0 iph
03/24/2017 12:57 Dry 66.2F - 35F - - - - - - 0 mhos 0 - None None 0.00 in 0.0 iph
03/24/2017 12:51 Dry 66.4F - 35F - - - - - - 0 mhos 0 - None None 0.00 in 0.0 iph
03/24/2017 12:47 Dry 65.3F - 35F - - - - - - 0 mhos 0 - None None 0.00 in 0.0 iph
03/24/2017 12:37 Dry 64.0F - 35F - - - - - - 0 mhos 0 - None None 0.00 in 0.0 iph
03/24/2017 12:36 Dry 64.0F - 35F - - - - - - 0 mhos 0 - None None 0.00 in 0.0 iph
03/24/2017 12:26 Dry 62.4F - 35F - - - - - - 0 mhos 0 - None None 0.00 in 0.0 iph
03/24/2017 12:21 Dry 61.7F - 35F - - - - - - 0 mhos 0 - None None 0.00 in 0.0 iph
03/24/2017 12:16 Dry 61.2F - 35F - - - - - - 0 mhos 0 - None None 0.00 in 0.0 iph
03/24/2017 12:06 Dry 58.8F - 35F - - - - - - 0 mhos 0 - None None 0.00 in 0.0 iph
Date/Time
(MDT)
Sf
Temp Chem Water Layer Surface Precipitation
Sfc Pvt Sub Frz Factor Pct Dpth DpthThk IcePct Cond Salin FI Type Intens Accum Rate
03/24/2017 12:06 Dry 58.8F - 35F - - - - - - 0 mhos 0 - None None 0.00 in 0.0 iph
03/24/2017 11:56 Dry 57.4F - 35F - - - - - - 0 mhos 0 - None None 0.00 in 0.0 iph
03/24/2017 11:51 Dry 56.1F - 35F - - - - - - 0 mhos 0 - None None 0.00 in 0.0 iph
03/24/2017 11:46 Dry 54.9F - 35F - - - - - - 0 mhos 0 - None None 0.00 in 0.0 iph
03/24/2017 11:36 Dry 53.2F - 35F - - - - - - 0 mhos 0 - None None 0.00 in 0.0 iph
03/24/2017 11:36 Dry 53.2F - 35F - - - - - - 0 mhos 0 - None None 0.00 in 0.0 iph
03/24/2017 11:26 Dry 51.4F - 35F - - - - - - 0 mhos 0 - None None 0.00 in 0.0 iph
03/24/2017 11:21 Dry 51.4F - 35F - - - - - - 0 mhos 0 - None None 0.00 in 0.0 iph
03/24/2017 11:16 Dry 50.5F - 35F - - - - - - 0 mhos 0 - None None 0.00 in 0.0 iph
03/24/2017 11:06 Dry 49.6F - 35F - - - - - - 0 mhos 0 - None None 0.00 in 0.0 iph
03/24/2017 11:06 Dry 49.6F - 35F - - - - - - 0 mhos 0 - None None 0.00 in 0.0 iph
03/24/2017 10:56 Dry 48.2F - 35F - - - - - - 0 mhos 0 - None None 0.00 in 0.0 iph
03/24/2017 10:51 Dry 47.3F - 35F - - - - - - 0 mhos 0 - None None 0.00 in 0.0 iph
03/24/2017 10:46 Dry 46.6F - 35F - - - - - - 0 mhos 0 - None None 0.00 in 0.0 iph
03/24/2017 10:36 Dry 45.0F - 35F - - - - - - 0 mhos 0 - None None 0.00 in 0.0 iph
Date/Time
(MDT)
Sf
Temp Chem Water Layer Surface Precipitation
Sfc Pvt Sub Frz Factor Pct Dpth DpthThk IcePct Cond Salin FI Type Intens Accum Rate
03/24/2017 10:36 Dry 45.0F - 35F - - - - - - 0 mhos 0 - None None 0.00 in 0.0 iph
03/24/2017 10:26 Dry 43.0F - 35F - - - - - - 0 mhos 0 - None None 0.00 in 0.0 iph
03/24/2017 10:21 Dry 43.0F - 35F - - - - - - 0 mhos 0 - None None 0.00 in 0.0 iph
03/24/2017 10:16 Dry 43.5F - 35F - - - - - - 0 mhos 0 - None None 0.00 in 0.0 iph
03/24/2017 10:06 Dry 42.6F - 35F - - - - - - 0 mhos 0 - None None 0.00 in 0.0 iph
03/24/2017 10:06 Dry 42.4F - 35F - - - - - - 0 mhos 0 - None None 0.00 in 0.0 iph
03/24/2017 09:56 Dry 40.5F - 35F - - - - - - 0 mhos 0 - None None 0.00 in 0.0 iph
03/24/2017 09:51 Dry 39.7F - 35F - - - - - - 0 mhos 0 - None None 0.00 in 0.0 iph
03/24/2017 09:46 Dry 38.3F - 35F - - - - - - 0 mhos 0 - None None 0.00 in 0.0 iph
03/24/2017 09:36 Dry 37.2F - 35F - - - - - - 0 mhos 0 - None None 0.00 in 0.0 iph
03/24/2017 09:36 Dry 36.9F - 35F - - - - - - 0 mhos 0 - None None 0.00 in 0.0 iph
03/24/2017 09:26 Dry 35.8F - 35F - - - - - - 0 mhos 0 - None None 0.00 in 0.0 iph
03/24/2017 09:21 Dry 35.1F - 35F - - - - - - 0 mhos 0 - None None 0.00 in 0.0 iph
03/24/2017 09:16 Dry 34.2F - 35F - - - - - - 0 mhos 0 - None None 0.00 in 0.0 iph
03/24/2017 09:06 Dry 32.9F - 35F - - - - - - 0 mhos 0 - None None 0.00 in 0.0 iph
Date/Time
(MDT)
Sf
Temp Chem Water Layer Surface Precipitation
Sfc Pvt Sub Frz Factor Pct Dpth DpthThk IcePct Cond Salin FI Type Intens Accum Rate
03/24/2017 09:05 Dry 32.9F - 35F - - - - - - 0 mhos 0 - None None 0.00 in 0.0 iph
03/24/2017 08:55 Dry 31.6F - 36F - - - - - - 0 mhos 0 - None None 0.00 in 0.0 iph
03/24/2017 08:51 Dry 31.1F - 36F - - - - - - 0 mhos 0 - None None 0.00 in 0.0 iph
03/24/2017 08:45 Dry 30.6F - 36F - - - - - - 0 mhos 0 - None None 0.00 in 0.0 iph
03/24/2017 08:36 Dry 29.3F - 36F - - - - - - 0 mhos 0 - None None 0.00 in 0.0 iph
03/24/2017 08:35 Dry 29.1F - 36F - - - - - - 0 mhos 0 - None None 0.00 in 0.0 iph
03/24/2017 08:25 Dry 28.4F - 36F - - - - - - 0 mhos 0 - None None 0.00 in 0.0 iph
03/24/2017 08:21 Dry 28.4F - 36F - - - - - - 0 mhos 0 - None None 0.00 in 0.0 iph
03/24/2017 08:15 Dry 28.2F - 36F - - - - - - 0 mhos 0 - None None 0.00 in 0.0 iph
03/24/2017 08:06 Dry 28.0F - 36F - - - - - - 0 mhos 0 - None None 0.00 in 0.0 iph
03/24/2017 08:05 Dry 27.9F - 36F - - - - - - 0 mhos 0 - None None 0.00 in 0.0 iph
03/24/2017 07:55 Dry 27.7F - 36F - - - - - - 0 mhos 0 - None None 0.00 in 0.0 iph
03/24/2017 07:51 Dry 27.3F - 36F - - - - - - 0 mhos 0 - None None 0.00 in 0.0 iph
03/24/2017 07:45 Dry 27.1F - 36F - - - - - - 0 mhos 0 - None None 0.00 in 0.0 iph
03/24/2017 07:36 Dry 27.0F - 36F - - - - - - 0 mhos 0 - None None 0.00 in 0.0 iph
Date/Time
(MDT)
Sf
Temp Chem Water Layer Surface Precipitation
Sfc Pvt Sub Frz Factor Pct Dpth DpthThk IcePct Cond Salin FI Type Intens Accum Rate
03/24/2017 07:35 Dry 27.0F - 36F - - - - - - 0 mhos 0 - None None 0.00 in 0.0 iph
03/24/2017 07:25 Dry 27.0F - 36F - - - - - - 0 mhos 0 - None None 0.00 in 0.0 iph
03/24/2017 07:21 Dry 26.8F - 36F - - - - - - 0 mhos 0 - None None 0.00 in 0.0 iph
03/24/2017 07:15 Dry 26.8F - 36F - - - - - - 0 mhos 0 - None None 0.00 in 0.0 iph
03/24/2017 07:06 Dry 26.8F - 36F - - - - - - 0 mhos 0 - None None 0.00 in 0.0 iph
03/24/2017 07:05 Dry 26.6F - 36F - - - - - - 0 mhos 0 - None None 0.00 in 0.0 iph
03/24/2017 06:55 Dry 26.6F - 36F - - - - - - 0 mhos 0 - None None 0.00 in 0.0 iph
03/24/2017 06:51 Dry 26.8F - 36F - - - - - - 0 mhos 0 - None None 0.00 in 0.0 iph
03/24/2017 06:45 Dry 27.0F - 36F - - - - - - 0 mhos 0 - None None 0.00 in 0.0 iph
03/24/2017 06:37 Dry 27.1F - 36F - - - - - - 0 mhos 0 - None None 0.00 in 0.0 iph
03/24/2017 06:35 Dry 27.3F - 36F - - - - - - 0 mhos 0 - None None 0.00 in 0.0 iph
03/24/2017 06:25 Dry 27.3F - 36F - - - - - - 0 mhos 0 - None None 0.00 in 0.0 iph
03/24/2017 06:22 Dry 27.3F - 36F - - - - - - 0 mhos 0 - None None 0.00 in 0.0 iph
03/24/2017 06:15 Dry 27.5F - 36F - - - - - - 0 mhos 0 - None None 0.00 in 0.0 iph
03/24/2017 06:07 Dry 27.3F - 36F - - - - - - 0 mhos 0 - None None 0.00 in 0.0 iph
Date/Time
(MDT)
Sf
Temp Chem Water Layer Surface Precipitation
Sfc Pvt Sub Frz Factor Pct Dpth DpthThk IcePct Cond Salin FI Type Intens Accum Rate
03/24/2017 06:05 Dry 27.3F - 36F - - - - - - 0 mhos 0 - None None 0.00 in 0.0 iph
03/24/2017 05:55 Dry 27.3F - 36F - - - - - - 0 mhos 0 - None None 0.00 in 0.0 iph
03/24/2017 05:51 Dry 27.3F - 36F - - - - - - 0 mhos 0 - None None 0.00 in 0.0 iph
03/24/2017 05:45 Dry 27.1F - 37F - - - - - - 0 mhos 0 - None None 0.00 in 0.0 iph
03/24/2017 05:37 Dry 27.0F - 37F - - - - - - 0 mhos 0 - None None 0.00 in 0.0 iph
03/24/2017 05:34 Dry 27.0F - 37F - - - - - - 0 mhos 0 - None None 0.00 in 0.0 iph
03/24/2017 05:24 Dry 27.1F - 37F - - - - - - 0 mhos 0 - None None 0.00 in 0.0 iph
03/24/2017 05:22 Dry 27.1F - 37F - - - - - - 0 mhos 0 - None None 0.00 in 0.0 iph
03/24/2017 05:14 Dry 27.3F - 37F - - - - - - 0 mhos 0 - None None 0.00 in 0.0 iph
03/24/2017 05:06 Dry 27.3F - 37F - - - - - - 0 mhos 0 - None None 0.00 in 0.0 iph
03/24/2017 05:04 Dry 27.3F - 37F - - - - - - 0 mhos 0 - None None 0.00 in 0.0 iph
03/24/2017 04:54 Dry 27.5F - 37F - - - - - - 0 mhos 0 - None None 0.00 in 0.0 iph
03/24/2017 04:52 Dry 27.5F - 37F - - - - - - 0 mhos 0 - None None 0.00 in 0.0 iph
03/24/2017 04:44 Dry 27.5F - 37F - - - - - - 0 mhos 0 - None None 0.00 in 0.0 iph
03/24/2017 04:36 Dry 27.5F - 37F - - - - - - 0 mhos 0 - None None 0.00 in 0.0 iph
Date/Time
(MDT)
Sf
Temp Chem Water Layer Surface Precipitation
Sfc Pvt Sub Frz Factor Pct Dpth DpthThk IcePct Cond Salin FI Type Intens Accum Rate
03/24/2017 04:34 Dry 27.5F - 37F - - - - - - 0 mhos 0 - None None 0.00 in 0.0 iph
03/24/2017 04:24 Dry 27.3F - 37F - - - - - - 0 mhos 0 - None None 0.00 in 0.0 iph
03/24/2017 04:21 Dry 27.3F - 37F - - - - - - 0 mhos 0 - None None 0.00 in 0.0 iph
03/24/2017 04:14 Dry 27.3F - 37F - - - - - - 0 mhos 0 - None None 0.00 in 0.0 iph
03/24/2017 04:07 Dry 27.5F - 37F - - - - - - 0 mhos 0 - None None 0.00 in 0.0 iph
03/24/2017 04:04 Dry 27.7F - 37F - - - - - - 0 mhos 0 - None None 0.00 in 0.0 iph
03/24/2017 03:54 Dry 27.9F - 37F - - - - - - 0 mhos 0 - None None 0.00 in 0.0 iph
03/24/2017 03:51 Dry 27.9F - 37F - - - - - - 0 mhos 0 - None None 0.00 in 0.0 iph
03/24/2017 03:44 Dry 27.9F - 37F - - - - - - 0 mhos 0 - None None 0.00 in 0.0 iph
03/24/2017 03:36 Dry 28.0F - 37F - - - - - - 0 mhos 0 - None None 0.00 in 0.0 iph
03/24/2017 03:34 Dry 27.9F - 37F - - - - - - 0 mhos 0 - None None 0.00 in 0.0 iph
03/24/2017 03:24 Dry 27.9F - 37F - - - - - - 0 mhos 0 - None None 0.00 in 0.0 iph
03/24/2017 03:21 Dry 27.9F - 37F - - - - - - 0 mhos 0 - None None 0.00 in 0.0 iph
03/24/2017 03:14 Dry 27.9F - 37F - - - - - - 0 mhos 0 - None None 0.00 in 0.0 iph
03/24/2017 03:06 Dry 27.7F - 37F - - - - - - 0 mhos 0 - None None 0.00 in 0.0 iph
Date/Time
(MDT)
Sf
Temp Chem Water Layer Surface Precipitation
Sfc Pvt Sub Frz Factor Pct Dpth DpthThk IcePct Cond Salin FI Type Intens Accum Rate
03/24/2017 03:04 Dry 28.0F - 37F - - - - - - 0 mhos 0 - None None 0.00 in 0.0 iph
03/24/2017 02:54 Dry 28.0F - 37F - - - - - - 0 mhos 0 - None None 0.00 in 0.0 iph
03/24/2017 02:51 Dry 28.0F - 37F - - - - - - 0 mhos 0 - None None 0.00 in 0.0 iph
03/24/2017 02:44 Dry 28.2F - 37F - - - - - - 0 mhos 0 - None None 0.00 in 0.0 iph
03/24/2017 02:36 Dry 28.2F - 37F - - - - - - 0 mhos 0 - None None 0.00 in 0.0 iph
03/24/2017 02:34 Dry 28.2F - 37F - - - - - - 0 mhos 0 - None None 0.00 in 0.0 iph
03/24/2017 02:24 Dry 28.0F - 37F - - - - - - 0 mhos 0 - None None 0.00 in 0.0 iph
03/24/2017 02:22 Dry 28.0F - 37F - - - - - - 0 mhos 0 - None None 0.00 in 0.0 iph
03/24/2017 02:13 Dry 28.2F - 37F - - - - - - 0 mhos 0 - None None 0.00 in 0.0 iph
03/24/2017 02:07 Dry 28.4F - 37F - - - - - - 0 mhos 0 - None None 0.00 in 0.0 iph
03/24/2017 02:03 Dry 28.4F - 37F - - - - - - 0 mhos 0 - None None 0.00 in 0.0 iph
03/24/2017 01:53 Dry 28.9F - 37F - - - - - - 0 mhos 0 - None None 0.00 in 0.0 iph
03/24/2017 01:52 Dry 29.1F - 37F - - - - - - 0 mhos 0 - None None 0.00 in 0.0 iph
Change End Date:

Copyright © 1998-2015 Vaisala, Inc.
All Rights Reserved
Send comments about the data to:
SCAN Web ® is a registered trademark of Vaisala, Inc.
SCAN Web Version 6.0